Location: Cruquius
(52.3348°N, 4.6319°E)
Time: 14:00:03
(UTC+00:00)

NOSS 3-4 (A) - Pass Details

Date: 12 May 2021
Orbit: 872 x 1340 km, 63.4° (Epoch: 06 May)

Event Time Altitude Azimuth Distance (km) Brightness Sun altitude
Rises 20:24:06 0° 313° (NW) 3,741 9.2 -7.8°
Reaches altitude 10° 20:26:34 10° 314° (NW) 2,848 7.7 -8.1°
Maximum altitude 20:33:23 84° 43° (NE) 1,141 3.9 -8.8°
Enters shadow 20:40:44 11° 133° (SE) 3,071 5.4 -9.6°
